[Date Prev][Date Next][Thread Prev][Thread Next] - [Date Index][Thread Index][Author Index]

2 Line ISS Keps 3-4



ISS
1 25544U 98067A   03063.17160774  .00042335  00000-0  53369-3 0  7461
2 25544  51.6323 187.6933 0011924 275.8130 146.5510 15.59090703244621


----
Via the sarex mailing list at AMSAT.ORG courtesy of AMSAT-NA.
To unsubscribe, send "unsubscribe sarex" to Majordomo@amsat.org



AMSAT Top AMSAT Home